OpenBCM V1.13 (Linux)

Packet Radio Mailbox

DB0FHN

[JN59NK Nuernberg]

 Login: GUEST





  
I6KZR  > KEPLER   04.01.03 21:48l 317 Lines 15753 Bytes #999 (0) @ WW
BID : 16559_IK6WID
Read: DB0FHN GUEST
Subj: 2L Keplerian Elements #004
Path: DB0FHN<DB0RGB<OK0PPL<RZ6HXA<SP7MGD<IK6PYS<I6ZLO<IK6WID
Sent: 030104/2025Z @:IK6WID.#AP.IMAR.ITA.EU #:16559 [MONTE URANO]  FBB7.00i
From: I6KZR@IK6WID.#AP.IMAR.ITA.EU
To  : KEPLER@WW


OSCAR 7
1 07530U 74089B   03001.72787133 -.00000029 +00000-0 +10000-3 0 01397
2 07530 101.7696 049.9504 0012389 170.1414 189.9901 12.53563184287191
GOES 2
1 10061U 77048A   02359.35983672 -.00000305  00000-0  00000+0 0   322
2 10061  14.1180  13.8737 0014065 196.4899 163.4904  0.99401889 38282
GOES 3
1 10953U 78062A   03002.06839568 -.00000099  00000-0  00000+0 0  8763
2 10953  13.3877  17.5918 0004489 338.0053  21.9843  1.00277620 43028
GOES 6
1 14050U 83041A   02365.19374659  .00000058  00000-0  10000-3 0  4099
2 14050  10.3375  35.7955 0002757 356.3386   3.6439  1.00286901130141
OSCAR 10
1 14129U 83058B   03002.77971805  .00000262  00000-0  10000-3 0  9084
2 14129  25.8491 172.1062 6046087 315.8046   9.2082  2.05865954119102
OSCAR 11 (UoSAT 2)
1 14781U 84021B   03003.91144950  .00001616  00000-0  23207-3 0   357
2 14781  98.1113 337.5096 0009583   5.6867 354.4448 14.77845943  9492
NOAA 10
1 16969U 86073A   03003.97411488  .00000191  00000-0  96580-4 0  6151
2 16969  98.7251 358.1924 0011872 217.4914 142.5438 14.27043916847401
GOES 7
1 17561U 87022A   02355.38651376  .00000102  00000-0  10000-3 0  7897
2 17561   7.4944  55.8496 0008079 326.4312  34.0198  1.00298198 41156
COSMOS 1861
1 18129U 87054A   03003.51703384  .00000081  00000-0  72099-4 0  1826
2 18129  82.9234 180.6058 0012317   2.0421 358.0764 13.72695658778199
EUTELSAT 1-F4 (ECS 4)
1 18351U 87078B   02352.12522730 -.00000062  00000-0  10000-3 0   233
2 18351   7.0733  58.7527 0004962 184.4653 172.0391  0.96710043 42061
NOAA 11
1 19531U 88089A   03003.95873901  .00000219  00000-0  13738-3 0  4532
2 19531  98.9083  85.4802 0011528 336.0492  24.0141 14.14514462736357
ASTRA 1A
1 19688U 88109B   02364.86148297  .00000041  00000-0  10000-3 0  5511
2 19688   1.2492  96.7833 0003014 182.8793 134.7898  1.00272573 31690
OSCAR 14 (UOSAT 3)
1 20437U 90005B   03003.77739990  .00000139  00000-0  68120-4 0  1331
2 20437  98.2793  49.5635 0010842 343.2756  16.8067 14.31220754675941
OSCAR 15 (UOSAT 4)
1 20438U 90005C   03001.66491978 +.00000158 +00000-0 +76759-4 0 07669
2 20438 098.2537 036.8871 0010359 001.0685 359.0518 14.30184041675313
OSCAR 16 (PACSAT)
1 20439U 90005D   03002.68138600  .00000176  00000-0  81870-4 0  8327
2 20439  98.3255  59.9268 0011298 352.8727   7.2301 14.31450794675825
OSCAR 17 (DOVE)
1 20440U 90005E   03002.19017929  .00000278  00000-0  11991-3 0  7176
2 20440  98.3450  63.2392 0011365 352.9991   7.1020 14.31727633675825
OSCAR 18 (WEBERSAT)
1 20441U 90005F   03004.20257306  .00000168  00000-0  79029-4 0  9791
2 20441  98.3421  64.4136 0011530 348.4459  11.6455 14.31534045676091
OSCAR 19 (LUSAT)
1 20442U 90005G   03003.69694480  .00000205  00000-0  92518-4 0  9310
2 20442  98.3550  66.8681 0012048 348.0011  12.0881 14.31696301676071
JAS 1B (FUJI 2)
1 20480U 90013C   03001.99101090  .00000000  00000-0  64431-4 0  4526
2 20480  99.0398 333.7042 0540942 111.5775 254.3847 12.83327462604413
HST
1 20580U 90037B   03004.38148148  .00003364  00000-0  26761-3 0  2868
2 20580  28.4677 331.5844 0004492 151.9251 323.1406 14.97611125495859
EUTELSAT 2-F1
1 20777U 90079B   02363.88046470 -.00000118  00000-0  10000-3 0    96
2 20777   3.3773  85.0294 0001628 236.2766 169.8068  1.00384072 25599
FENGYUN 1B
1 20788U 90081A   03003.50729979  .00000447  00000-0  32087-3 0  8499
2 20788  99.0208 346.1513 0015803 358.3397   1.7713 14.02137197631085
EUTELSAT 2-F2
1 21056U 91003B   02363.89428382  .00000128  00000-0  10000-3 0  6032
2 21056   2.6092  88.4131 0002415 217.3203 162.7392  1.00269142 31379
INFORMATOR 1
1 21087U 91006A   03003.05720971  .00000054  00000-0  40675-4 0  5880
2 21087  82.9416 351.8507 0036508  21.9376 338.3332 13.74921184598499
COSMOS 2123
1 21089U 91007A   03004.11364614  .00000061  00000-0  47719-4 0  4804
2 21089  82.9202 215.1000 0030723  53.9584 306.4410 13.74398997597541
ASTRA 1B
1 21139U 91015A   02364.00000000  .00000128  00000-0  10000-3 0  1567
2 21139   0.0122 319.8851 0002995  65.1991  92.3752  1.00273184 31686
METEOSAT 5 (MOP 2)
1 21140U 91015B   03001.79588238 +.00000014 +00000-0 +10000-3 0 06590
2 21140 005.5239 070.2571 0001079 154.6659 225.7305 01.00278351045571
NOAA 12
1 21263U 91032A   03003.98620598  .00000381  00000-0  18096-3 0  9193
2 21263  98.6208 354.4007 0013076 150.8839 209.3071 14.25046785604726
OSCAR 22 (UoSAT 5)
1 21575U 91050B   03003.20305201  .00000408  00000-0  14494-3 0  6910
2 21575  98.1365 357.6791 0006396 276.0022  84.0433 14.39119579601610
METEOR 3-5
1 21655U 91056A   03001.96413223 +.00000051 +00000-0 +10000-3 0 04900
2 21655 082.5577 072.5042 0012894 322.3703 037.6516 13.16977571547213
UARS
1 21701U 91063B   03003.13173729  .00000757  00000-0  75180-4 0  7902
2 21701  56.9806 219.9922 0006790 114.0586 246.1112 15.02749549618736
EUTELSAT 2-F3
1 21803U 91083A   02364.03689237 +.00000134 +00000-0 +10000-3 0 05042
2 21803 002.4714 089.6383 0002540 211.8649 191.4787 01.00269107036498
INMARSAT 2-F3
1 21814U 91084B   03003.50717557  .00000110  00000-0  10000-3 0  5937
2 21814   1.6569  56.7915 0002049 245.8004 200.6811  1.00267788 40434
INMARSAT 2-F4
1 21940U 92021B   03002.32444389 -.00000352  00000-0  10000-3 0  5612
2 21940   2.3599  18.4893 0002289 249.2273  59.5600  1.00266746 39200
EUTELSAT 2-F4
1 22028U 92041B   02365.09071760 -.00000094  00000-0  10000-3 0  3112
2 22028   1.5937  93.1263 0005707 208.0581 178.4586  1.00271830 31283
OSCAR 23 (KITSAT 1)
1 22077U 92052B   03002.22174896 -.00000037  00000-0  10000-3 0  1447
2 22077  66.0864 224.8821 0014747 284.4874  75.4507 12.86407130488210
ASTRA 1C
1 22653U 93031A   02364.00000000  .00000128  00000-0  10000-3 0  7824
2 22653   0.0122 319.8851 0002995  65.1991  92.3588  1.00273184 30381
METEOR 2-21
1 22782U 93055A   03003.32243431  .00000167  00000-0  13755-3 0  4826
2 22782  82.5489 251.5753 0023611 114.1910 246.1750 13.83526809471694
KITSAT B
1 22825U 93061C   03003.53772057  .00000178  00000-0  86768-4 0  4530
2 22825  98.2792  35.5733 0009301  40.1624 320.0244 14.28925449483305
POSAT 1
1 22826U 93061D   03003.64516150  .00000171  00000-0  83635-4 0  2938
2 22826  98.2812  36.7685 0009796  38.1417 322.0453 14.29146506483363
ITAMSAT
1 22828U 93061F   03004.12646402  .00000142  00000-0  71583-4 0  3936
2 22828  98.2751  37.4888 0010625  16.7328 343.4200 14.29491582451635
EYESAT A
1 22829U 93061G   03003.51393524  .00000250  00000-0  11318-3 0  4168
2 22829  98.2789  37.4904 0010398  19.0201 341.1373 14.29742475483472
METEOSAT 6
1 22912U 93073B   03002.78904515  .00000060  00000-0  00000+0 0  6196
2 22912   2.5619  82.6410 0001015 137.6720 175.0913  1.00267436 31824
GOES 8
1 23051U 94022A   03003.79297115 -.00000249  00000-0  00000+0 0  5457
2 23051   0.1859 106.9126 0002307 189.0245  17.5103  1.00262409 39342
ASTRA 1D
1 23331U 94070A   03001.92365742  .00000142  00000-0  00000+0 0  7976
2 23331   0.0606 207.8620 0004882  23.6325 226.3824  1.00273040 30393
RADIO ROSTO
1 23439U 94085A   03003.43978922 -.00000041  00000-0  33074-4 0  6722
2 23439  64.8140 116.0743 0148180 124.2421 237.2637 11.27548341330390
NOAA 14
1 23455U 94089A   03004.02311413  .00000174  00000-0  11802-3 0  4735
2 23455  99.1883  21.3917 0009407   2.2397 357.8815 14.13278715413043
HIMAWARI 5 (GMS 5)
1 23522U 95011B   03002.59720346 -.00000280  00000-0  00000+0 0   352
2 23522   1.6425  83.0001 0000976  99.8851 274.1430  1.00274591 28424
HOT BIRD 1
1 23537U 95016B   02364.09542247  .00000091  00000-0  10000-3 0  5315
2 23537   0.1178  62.3444 0060331 260.0229 182.7219  1.00272908 28465
GOES 9
1 23581U 95025A   03003.74930693  .00000032  00000-0  00000+0 0  4569
2 23581   0.3954 277.3228 0008377 225.9623 110.3853  1.00030292 27903
INMARSAT 3-F1
1 23839U 96020A   02362.74878715  .00000025  00000-0  00000+0 0  8414
2 23839   0.0618  18.2214 0005592 221.8028 190.5550  1.00274532 24694
ASTRA 1F
1 23842U 96021A   02364.00000000  .00000128  00000-0  10000-3 0  5555
2 23842   0.0122 319.8851 0002995  65.1991  92.4014  1.00273184 24616
JAS 2
1 24278U 96046B   03002.50555677 -.00000022  00000-0  15636-4 0  5506
2 24278  98.5309 160.1332 0350903 338.6447  20.0347 13.52867788314942
UNAMSAT
1 24305U 96052B   03003.22802812  .00000205  00000-0  20364-3 0  6517
2 24305  82.9343 297.0518 0030496 335.8646  24.1066 13.73445685317123
INMARSAT 3-F2
1 24307U 96053A   02365.27116899 -.00000117  00000-0  00000+0 0   640
2 24307   0.0479  30.0937 0004704 249.5898 261.9372  1.00270574 23124
HOT BIRD 2
1 24665U 96067A   02364.09542247  .00000096  00000-0  10000-3 0  3374
2 24665   0.0380 203.9859 0010678  49.4036 252.3771  1.00274592 22753
INMARSAT 3-F3
1 24674U 96070A   03002.62167590  .00000041  00000-0  10000-3 0  9603
2 24674   0.0539   1.4519 0004295 271.1186 231.1520  1.00273310 22115
GOES 10
1 24786U 97019A   03003.20233797  .00000089  00000-0  00000+0 0  4870
2 24786   0.0266 105.5349 0002847 214.8188  79.4371  1.00275011 20878
INMARSAT 3-F4
1 24819U 97027A   03003.24007652 -.00000286  00000-0  10000-3 0  8621
2 24819   0.0230 310.9609 0003657 339.7498 204.1763  1.00269822 20547
FENGYUN 2A
1 24834U 97029A   02363.87585822 -.00000191  00000-0  00000+0 0  9415
2 24834   2.4466  88.8933 0001931 238.4439 172.5930  1.00268131 20338
HOT BIRD 3
1 24931U 97049A   02364.09542247  .00000095  00000-0  10000-3 0  4180
2 24931   0.0070 329.5839 0008855 285.9646 250.1886  1.00273530 19576
METEOSAT 7
1 24932U 97049B   03002.87952483 -.00000005  00000-0  00000+0 0  2202
2 24932   0.1233  32.9842 0001500 233.8175 151.8056  1.00270714 19552
ASTRA 1G
1 25071U 97076A   02364.00000000  .00000128  00000-0  10000-3 0  3864
2 25071   0.0122 319.8851 0002995  65.1991  92.3633  1.00273184 18633
